LBT79E LPPT-GMMN

Flight info

Callsign LBT79E
Flight time N/A
Altitude 37000
Route DUZOP DCT AMSEL UR722 LAKAM
Aircraft A320/M-SDE3FGHIRWY/LB1

Departure

Time 2026-05-07 13:35
Airport Lisbon Humberto Delgado Airport (LPPT)

Arrival

Time N/A
Airport Mohammed V International Airport (GMMN)
Time Latitude Longitude Altitude Speed Heading
2026-05-07 12:52 38.77550 -9.13180 357 ft 0 kts 75°
2026-05-07 13:21 38.77546 -9.13200 356 ft 4 kts 77°
2026-05-07 13:22 38.77541 -9.13234 352 ft 4 kts 81°
2026-05-07 13:22 38.77538 -9.13268 355 ft 4 kts 87°
2026-05-07 13:22 38.77537 -9.13287 354 ft 1 kts 87°
2026-05-07 13:22 38.77537 -9.13289 355 ft 0 kts 87°
2026-05-07 13:23 38.77538 -9.13302 347 ft 2 kts 130°
2026-05-07 13:24 38.77545 -9.13311 357 ft 0 kts 172°
2026-05-07 13:26 38.77542 -9.13311 357 ft 1 kts 170°
2026-05-07 13:26 38.77521 -9.13305 356 ft 5 kts 167°
2026-05-07 13:26 38.77480 -9.13293 355 ft 7 kts 167°
2026-05-07 13:27 38.77424 -9.13278 347 ft 9 kts 168°
2026-05-07 13:27 38.77361 -9.13267 347 ft 8 kts 187°
2026-05-07 13:27 38.77326 -9.13320 350 ft 9 kts 251°
2026-05-07 13:27 38.77274 -9.13363 352 ft 10 kts 179°
2026-05-07 13:28 38.77199 -9.13345 349 ft 12 kts 169°
2026-05-07 13:28 38.77117 -9.13323 352 ft 12 kts 168°
2026-05-07 13:28 38.77035 -9.13301 351 ft 11 kts 169°
2026-05-07 13:28 38.76961 -9.13280 347 ft 10 kts 168°
2026-05-07 13:29 38.76894 -9.13263 350 ft 9 kts 168°
2026-05-07 13:29 38.76834 -9.13247 347 ft 8 kts 168°
2026-05-07 13:29 38.76783 -9.13245 347 ft 7 kts 199°
2026-05-07 13:29 38.76762 -9.13288 354 ft 7 kts 253°
2026-05-07 13:30 38.76744 -9.13372 357 ft 11 kts 244°
2026-05-07 13:30 38.76686 -9.13435 355 ft 11 kts 214°
2026-05-07 13:30 38.76649 -9.13516 347 ft 11 kts 258°
2026-05-07 13:30 38.76632 -9.13624 351 ft 13 kts 258°
2026-05-07 13:31 38.76611 -9.13749 352 ft 15 kts 258°
2026-05-07 13:31 38.76596 -9.13848 348 ft 11 kts 258°
2026-05-07 13:31 38.76581 -9.13932 349 ft 8 kts 257°
2026-05-07 13:31 38.76562 -9.14006 350 ft 10 kts 237°
2026-05-07 13:32 38.76514 -9.14082 354 ft 12 kts 233°
2026-05-07 13:32 38.76499 -9.14181 354 ft 12 kts 287°
2026-05-07 13:32 38.76528 -9.14273 346 ft 8 kts 292°
2026-05-07 13:32 38.76556 -9.14357 338 ft 12 kts 294°
2026-05-07 13:33 38.76584 -9.14417 337 ft 5 kts 334°
2026-05-07 13:33 38.76615 -9.14406 338 ft 0 kts 25°
2026-05-07 13:34 38.76617 -9.14405 339 ft 5 kts 25°
2026-05-07 13:34 38.76905 -9.14251 337 ft 83 kts 22°
2026-05-07 13:35 38.77639 -9.13857 350 ft 143 kts 22°
2026-05-07 13:35 38.78671 -9.13326 622 ft 167 kts 20°
2026-05-07 13:35 38.79738 -9.12759 1432 ft 165 kts 18°
2026-05-07 13:35 38.80833 -9.12153 1976 ft 181 kts 20°
2026-05-07 13:36 38.82019 -9.11378 2393 ft 202 kts 26°
2026-05-07 13:36 38.83280 -9.10376 2853 ft 225 kts 29°
2026-05-07 13:36 38.84700 -9.09278 3382 ft 248 kts 28°
2026-05-07 13:36 38.86263 -9.08088 3852 ft 272 kts 31°
2026-05-07 13:37 38.87622 -9.06391 4715 ft 278 kts 60°
2026-05-07 13:37 38.88161 -9.04058 5644 ft 278 kts 90°
2026-05-07 13:37 38.87821 -9.01664 6638 ft 273 kts 116°
2026-05-07 13:37 38.86902 -8.99524 7570 ft 273 kts 126°
2026-05-07 13:38 38.85551 -8.97822 8464 ft 273 kts 150°
2026-05-07 13:38 38.83796 -8.96970 9336 ft 276 kts 172°
2026-05-07 13:38 38.81877 -8.97078 10151 ft 281 kts 195°
2026-05-07 13:38 38.79996 -8.97981 10622 ft 299 kts 202°
2026-05-07 13:39 38.77995 -8.99051 10901 ft 321 kts 202°
2026-05-07 13:39 38.75914 -9.00182 11514 ft 331 kts 203°
2026-05-07 13:39 38.73776 -9.01348 12282 ft 335 kts 203°
2026-05-07 13:39 38.71610 -9.02525 13033 ft 340 kts 204°
2026-05-07 13:40 38.69404 -9.03718 13754 ft 346 kts 204°
2026-05-07 13:40 38.67191 -9.04907 14373 ft 350 kts 204°
2026-05-07 13:40 38.64926 -9.06118 15057 ft 354 kts 203°
2026-05-07 13:40 38.62641 -9.07335 15752 ft 357 kts 205°
2026-05-07 13:41 38.60334 -9.08562 16409 ft 361 kts 205°
2026-05-07 13:41 38.58000 -9.09802 17088 ft 364 kts 205°
2026-05-07 13:41 38.55653 -9.11050 17789 ft 367 kts 205°
2026-05-07 13:41 38.53277 -9.12315 18417 ft 370 kts 205°